OneWeb SL0007

operational
NORAD ID: 44060 Int'l Des: 2019-010 Owner: ONEWEB Country: UK Constellation: oneweb
LEOCIRCULARPOLARONEWEB_TYPE

Über OneWeb SL0007

Beschreibung wird geladen...

Live-Position

3D-Globus wird geladen...

Nächste Überflüge

Höhenverlauf

Altitude vs Time

uPlot chart will show altitude changes over time

Zweizeiliger Elementsatz

1 44060U 19010D 25348.90002593 -.00000052 00000-0 -17303-3 0 9991
2 44060 87.8987 296.0006 0002144 76.0371 284.0997 13.15547695327143
Epoch: 14. Dez. 2025 • Age: 20 hours

Aktueller Status

Höhe 1231.3 km
Geschwindigkeit 7.24 km/s
Subsatellitenpunkt -79.50°S, 59.26°W
Startdatum 27. Feb. 2019
Alter 6.7 years
Typ internet

Technische Details

Klassifizierung Payload
Masse 148.00 kg
Trockenmasse 140.00 kg
Gesamtmasse 148.00 kg
Länge 1.30 m
Durchmesser 1.00 m
Spannweite 5.00 m
Form Trapezoid+2 pan
Hersteller ADST
Bus-Typ ARROW
Phasenstatus In Orbit
Besitzer/Staat ONEWEB/UK

Große Konstellationen

Loading constellations...